Flight Track Log - Related Links

Times and Time Zones

All times are in EDT time to prevent confusion due to time zone crossing. See the GJS6221 flight status page for this flight to view local times or setup timezone preferences in your user account.

Time Position Orientation Groundspeed Altitude Reporting Facility
EDT Latitude Longitude Course Direction KTS MPH feet Rate Location/Type
Thu 07:23:53 AM 45.4500 -73.7167 175° South 140 161 1,100  Level Montreal Center
Thu 07:24:53 AM 45.4000 -73.7667 215° Southwest 190 219 3,100 2,150 Climbing Montreal Center
Thu 07:25:53 AM 45.3500 -73.8167 215° Southwest 210 242 5,400 2,450 Climbing Montreal Center
Thu 07:26:53 AM 45.2833 -73.8000 170° South 260 299 8,000 2,650 Climbing Montreal Center
Thu 07:27:53 AM 45.2000 -73.8000 180° South 270 311 10,700 2,550 Climbing Montreal Center
Thu 07:28:53 AM 45.1167 -73.8167 188° South 290 334 13,100 2,400 Climbing Montreal Center
Thu 07:29:00 AM 44.5322 -74.0999 175° South  Level FlightAware Approximate
Thu 07:29:53 AM 45.0500 -73.8167 180° South 300 345 15,500  Level Montreal Center
Thu 07:30:53 AM 44.9500 -73.8167 180° South 320 368 17,400 1,850 Climbing Montreal Center
Thu 07:31:53 AM 44.8667 -73.8167 180° South 340 391 19,200 1,806 Climbing Montreal Center
Thu 07:32:26 AM 44.8219 -73.8183 182° South 343 395 20,200 1,915 Climbing Boston Center
Thu 07:33:27 AM 44.7219 -73.8161 179° South 354 407 22,200 1,950 Climbing Boston Center
Thu 07:34:26 AM 44.6197 -73.8194 181° South 361 415 24,100 1,932 Climbing Boston Center
Thu 07:35:25 AM 44.5156 -73.8169 179° South 368 423 26,000 1,664 Climbing Boston Center
Thu 07:36:25 AM 44.4136 -73.8175 180° South 368 423 27,400 1,339 Climbing Boston Center
Thu 07:37:26 AM 44.3053 -73.8150 179° South 373 429 28,700 1,240 Climbing Boston Center
Thu 07:38:26 AM 44.2178 -73.8161 181° South 385 443 29,900 645 Climbing Boston Center
Thu 07:39:27 AM 44.0822 -73.8158 180° South 398 458 30,000 50 Climbing Boston Center
Thu 07:40:27 AM 43.9697 -73.8133 179° South 406 467 30,000  Level Boston Center
Thu 07:41:24 AM 43.8844 -73.8111 179° South 417 480 30,000  Level Boston Center
Thu 07:42:25 AM 43.7531 -73.8111 180° South 417 480 30,000  Level Boston Center
Thu 07:43:25 AM 43.6322 -73.8142 181° South 406 467 30,000  Level Boston Center
Thu 07:44:26 AM 43.5258 -73.8144 180° South 401 461 30,000  Level Boston Center
Thu 07:45:27 AM 43.4156 -73.8119 179° South 396 456 30,000  Level Boston Center
Thu 07:46:27 AM 43.3133 -73.8097 179° South 401 461 30,000 -353 Level Boston Center
Thu 07:47:26 AM 43.2028 -73.8072 179° South 401 461 29,300 -1,109 Descending Boston Center
Thu 07:48:26 AM 43.0903 -73.8106 181° South 401 461 27,800 -1,388 Descending Boston Center
Thu 07:49:27 AM 42.9800 -73.8081 179° South 401 461 26,500 -1,261 Descending Boston Center
Thu 07:50:25 AM 42.8714 -73.8083 180° South 401 461 25,300 -1,210 Descending Boston Center
Thu 07:51:26 AM 42.7631 -73.8061 179° South 401 461 24,100 -1,140 Descending Boston Center
Thu 07:52:26 AM 42.6653 -73.7897 173° South 388 447 23,000 -1,041 Descending Boston Center
Thu 07:53:27 AM 42.5553 -73.7675 172° South 370 426 22,000 -992 Descending Boston Center
Thu 07:54:27 AM 42.4533 -73.7486 172° South 365 420 21,000 -1,026 Descending Boston Center
Thu 07:55:24 AM 42.3556 -73.7269 171° South 365 420 20,000 -1,017 Descending Boston Center
Thu 07:56:25 AM 42.2578 -73.7053 171° South 365 420 19,000 -902 Descending Boston Center
Thu 07:57:37 AM 42.1603 -73.6836 171° South 365 420 18,000 -451 Descending Boston Center
Thu 07:58:38 AM 42.0517 -73.6928 184° South 345 397 18,000  Level Boston Center
Thu 07:59:39 AM 41.9703 -73.7050 186° South 339 390 18,000 -151 Level Boston Center
Thu 08:00:37 AM 41.8639 -73.7225 187° South 339 390 17,700 -915 Descending Boston Center
Thu 08:01:37 AM 41.7844 -73.7347 187° South 334 384 16,200 -1,537 Descending Boston Center
Thu 08:02:38 AM 41.6883 -73.7494 187° South 326 375 14,600 -1,525 Descending Boston Center
Thu 08:03:39 AM 41.6092 -73.7589 185° South 321 369 13,100 -1,582 Descending Boston Center
Thu 08:04:09 AM 41.5500 -73.7667 186° South 304 350 12,200 -1,624 Descending New York TRACON
Thu 08:05:04 AM 41.4833 -73.7833 191° South 300 345 10,800 -1,513 Descending New York TRACON
Thu 08:06:04 AM 41.4000 -73.7833 180° South 296 341 9,300 -1,250 Descending New York TRACON
Thu 08:07:04 AM 41.3167 -73.7833 180° South 279 321 8,300 -950 Descending New York TRACON
Thu 08:08:04 AM 41.2500 -73.7167 143° Southeast 283 326 7,400 -1,250 Descending New York TRACON
Thu 08:09:04 AM 41.1833 -73.6833 159° South 283 326 5,800 -1,550 Descending New York TRACON
Thu 08:10:04 AM 41.1167 -73.6667 169° South 273 314 4,300 -900 Descending New York TRACON
Thu 08:11:04 AM 41.0500 -73.6667 180° South 252 290 4,000 -143 Descending New York TRACON
Thu 08:12:10 AM 40.9833 -73.7000 201° Southwest 194 223 4,000 -143 Level New York TRACON
Thu 08:13:10 AM 40.9500 -73.7333 217° Southwest 172 198 3,700 -579 Descending New York TRACON
Thu 08:14:04 AM 40.9167 -73.7667 217° Southwest 150 173 2,900 -789 Descending New York TRACON
Thu 08:15:04 AM 40.8833 -73.8000 217° Southwest 149 171 2,200 -750 Descending New York TRACON
Thu 08:16:04 AM 40.8500 -73.8167 201° Southwest 144 166 1,400 -750 Descending New York TRACON
Thu 08:17:04 AM 40.8167 -73.8500 217° Southwest 131 151 700 -700 Descending New York TRACON
Thu 08:19:00 AM 40.7772 -73.8726 180° South  Level Estimated
Thu 08:26:00 AM 40.7772 -73.8726 180° South  Level Estimated
Thu 08:27:00 AM 40.7772 -73.8726 180° South  Level Estimated

Login

Don't have an account? Register now (free) for customized features, flight alerts, and more!